Time,TemperatureF,DewpointF,PressureIn,WindDirection,WindDirectionDegrees,WindSpeedMPH,WindSpeedGustMPH,Humidity,HourlyPrecipIn,Conditions,Clouds,dailyrainin,SoftwareType,DateUTC
2013-09-13 00:00:00,70.3,67.9,29.75,NW,306,2.0,4.0,92,0.00,,---,0.36,VWS V14.01,2013-09-13 04:00:00,
2013-09-13 00:01:00,70.4,68.0,29.75,NW,309,0.0,4.0,92,0.00,,---,0.00,VWS V14.01,2013-09-13 04:01:00,
2013-09-13 00:02:00,70.4,67.7,29.75,WNW,302,2.0,4.0,91,0.00,,---,0.00,VWS V14.01,2013-09-13 04:02:00,
2013-09-13 00:07:00,70.6,67.5,29.74,NW,325,1.0,4.0,90,0.00,,---,0.00,VWS V14.01,2013-09-13 04:07:00,
2013-09-13 00:10:00,70.7,67.3,29.75,WNW,302,1.0,4.0,89,0.00,,---,0.00,VWS V14.01,2013-09-13 04:10:00,
2013-09-13 00:12:00,70.7,67.3,29.75,West,271,0.0,3.0,89,0.00,,---,0.00,VWS V14.01,2013-09-13 04:12:00,
2013-09-13 00:17:00,70.9,67.2,29.75,WNW,298,1.0,3.0,88,0.00,,---,0.00,VWS V14.01,2013-09-13 04:17:00,
2013-09-13 00:20:00,70.9,67.2,29.75,West,280,0.0,3.0,88,0.00,,---,0.00,VWS V14.01,2013-09-13 04:20:00,
2013-09-13 00:22:00,71.0,67.9,29.75,West,281,0.0,1.0,90,0.00,,---,0.00,VWS V14.01,2013-09-13 04:22:00,
2013-09-13 00:27:00,70.7,68.3,29.75,NE,51,0.0,1.0,92,0.00,,---,0.00,VWS V14.01,2013-09-13 04:27:00,
2013-09-13 00:30:00,70.5,68.1,29.75,East,84,2.0,2.0,92,0.00,,---,0.00,VWS V14.01,2013-09-13 04:30:00,
2013-09-13 00:32:00,70.0,67.9,29.75,East,89,1.0,2.0,93,0.00,,---,0.00,VWS V14.01,2013-09-13 04:32:00,
2013-09-13 00:37:00,69.5,67.7,29.75,ENE,76,1.0,2.0,94,0.00,,---,0.00,VWS V14.01,2013-09-13 04:37:00,
2013-09-13 00:40:00,69.3,67.5,29.75,East,83,1.0,2.0,94,0.00,,---,0.00,VWS V14.01,2013-09-13 04:40:00,
2013-09-13 00:42:00,69.0,67.5,29.75,ENE,77,1.0,2.0,95,0.00,,---,0.00,VWS V14.01,2013-09-13 04:42:00,
2013-09-13 00:47:00,68.8,67.6,29.74,East,84,0.0,3.0,96,0.00,,---,0.00,VWS V14.01,2013-09-13 04:47:00,
2013-09-13 00:50:00,68.7,67.5,29.74,East,85,0.0,3.0,96,0.00,,---,0.00,VWS V14.01,2013-09-13 04:50:00,
2013-09-13 00:52:00,68.6,67.4,29.74,ESE,115,1.0,1.0,96,0.00,,---,0.00,VWS V14.01,2013-09-13 04:52:00,
2013-09-13 00:57:00,68.5,67.3,29.74,West,280,0.0,2.0,96,0.00,,---,0.00,VWS V14.01,2013-09-13 04:57:00,
2013-09-13 01:00:00,68.5,67.3,29.74,NW,316,0.0,2.0,96,0.00,,---,0.00,VWS V14.01,2013-09-13 05:00:00,
2013-09-13 01:02:00,68.5,67.3,29.74,NW,316,1.0,1.0,96,0.00,,---,0.00,VWS V14.01,2013-09-13 05:02:00,
2013-09-13 01:07:00,68.4,67.2,29.74,NW,316,0.0,1.0,96,0.00,,---,0.00,VWS V14.01,2013-09-13 05:07:00,
2013-09-13 01:10:00,68.4,67.2,29.73,NW,316,0.0,1.0,96,0.00,,---,0.00,VWS V14.01,2013-09-13 05:10:00,
2013-09-13 01:12:00,68.3,67.1,29.73,NW,316,0.0,0.0,96,0.00,,---,0.00,VWS V14.01,2013-09-13 05:12:00,
2013-09-13 01:17:00,68.3,67.1,29.74,NW,315,0.0,0.0,96,0.00,,---,0.00,VWS V14.01,2013-09-13 05:17:00,
2013-09-13 01:20:00,68.3,67.1,29.73,NW,315,0.0,0.0,96,0.00,,---,0.00,VWS V14.01,2013-09-13 05:20:00,
2013-09-13 01:22:00,68.2,67.0,29.73,NW,315,0.0,0.0,96,0.00,,---,0.00,VWS V14.01,2013-09-13 05:22:00,
2013-09-13 01:27:00,68.2,67.3,29.73,NW,315,0.0,0.0,97,0.00,,---,0.00,VWS V14.01,2013-09-13 05:27:00,
2013-09-13 01:30:00,68.2,67.0,29.73,NW,314,0.0,0.0,96,0.00,,---,0.00,VWS V14.01,2013-09-13 05:30:00,
2013-09-13 01:32:00,68.2,67.3,29.73,NW,316,0.0,0.0,97,0.00,,---,0.00,VWS V14.01,2013-09-13 05:32:00,
2013-09-13 01:37:00,68.1,67.2,29.73,ENE,58,0.0,1.0,97,0.00,,---,0.00,VWS V14.01,2013-09-13 05:37:00,
2013-09-13 01:40:00,68.1,67.2,29.73,ENE,58,1.0,1.0,97,0.00,,---,0.00,VWS V14.01,2013-09-13 05:40:00,
2013-09-13 01:42:00,68.1,67.2,29.73,ENE,58,0.0,1.0,97,0.00,,---,0.00,VWS V14.01,2013-09-13 05:42:00,
2013-09-13 01:47:00,68.1,67.2,29.73,ENE,58,0.0,1.0,97,0.00,,---,0.00,VWS V14.01,2013-09-13 05:47:00,
2013-09-13 01:50:00,68.0,67.1,29.73,NE,56,0.0,1.0,97,0.00,,---,0.00,VWS V14.01,2013-09-13 05:50:00,
2013-09-13 01:53:00,67.9,67.0,29.73,NNE,16,0.0,1.0,97,0.00,,---,0.00,VWS V14.01,2013-09-13 05:53:00,
2013-09-13 01:58:00,67.8,66.9,29.73,NNE,16,0.0,1.0,97,0.00,,---,0.00,VWS V14.01,2013-09-13 05:58:00,
2013-09-13 02:00:00,67.8,66.9,29.73,NNE,16,0.0,1.0,97,0.00,,---,0.00,VWS V14.01,2013-09-13 06:00:00,
2013-09-13 02:03:00,67.8,66.9,29.73,NE,56,0.0,1.0,97,0.00,,---,0.00,VWS V14.01,2013-09-13 06:03:00,
2013-09-13 02:08:00,67.7,66.8,29.73,NNE,20,0.0,2.0,97,0.00,,---,0.00,VWS V14.01,2013-09-13 06:08:00,
2013-09-13 02:10:00,67.8,66.9,29.73,WNW,296,0.0,2.0,97,0.00,,---,0.00,VWS V14.01,2013-09-13 06:10:00,
2013-09-13 02:13:00,67.8,66.9,29.73,WNW,298,0.0,0.0,97,0.00,,---,0.00,VWS V14.01,2013-09-13 06:13:00,
2013-09-13 02:18:00,67.7,66.8,29.72,WNW,298,0.0,1.0,97,0.00,,---,0.00,VWS V14.01,2013-09-13 06:18:00,
2013-09-13 02:20:00,67.7,66.8,29.72,WNW,297,0.0,1.0,97,0.00,,---,0.00,VWS V14.01,2013-09-13 06:20:00,
2013-09-13 02:23:00,67.7,66.8,29.72,WNW,297,0.0,0.0,97,0.00,,---,0.00,VWS V14.01,2013-09-13 06:23:00,
2013-09-13 02:28:00,67.6,66.7,29.72,WNW,297,0.0,0.0,97,0.00,,---,0.00,VWS V14.01,2013-09-13 06:28:00,
2013-09-13 02:30:00,67.6,66.7,29.72,WNW,298,0.0,0.0,97,0.00,,---,0.00,VWS V14.01,2013-09-13 06:30:00,
2013-09-13 02:33:00,67.5,66.6,29.71,WNW,297,0.0,0.0,97,0.00,,---,0.00,VWS V14.01,2013-09-13 06:33:00,
2013-09-13 02:38:00,67.4,66.5,29.71,WNW,298,0.0,0.0,97,0.00,,---,0.00,VWS V14.01,2013-09-13 06:38:00,
2013-09-13 02:40:00,67.4,66.5,29.71,WNW,297,0.0,0.0,97,0.00,,---,0.00,VWS V14.01,2013-09-13 06:40:00,
2013-09-13 02:43:00,67.3,66.4,29.71,WNW,297,0.0,0.0,97,0.00,,---,0.00,VWS V14.01,2013-09-13 06:43:00,
2013-09-13 02:48:00,67.2,66.3,29.71,WNW,298,0.0,1.0,97,0.00,,---,0.00,VWS V14.01,2013-09-13 06:48:00,
2013-09-13 02:50:00,67.2,66.3,29.71,WNW,298,0.0,1.0,97,0.00,,---,0.00,VWS V14.01,2013-09-13 06:50:00,
2013-09-13 02:53:00,67.1,66.2,29.70,WNW,298,0.0,0.0,97,0.00,,---,0.00,VWS V14.01,2013-09-13 06:53:00,
2013-09-13 02:58:00,66.9,66.0,29.70,WNW,297,0.0,0.0,97,0.00,,---,0.00,VWS V14.01,2013-09-13 06:58:00,
2013-09-13 03:00:00,66.9,66.0,29.70,WNW,298,0.0,0.0,97,0.00,,---,0.00,VWS V14.01,2013-09-13 07:00:00,
2013-09-13 03:03:00,66.7,65.8,29.70,WNW,298,0.0,0.0,97,0.00,,---,0.00,VWS V14.01,2013-09-13 07:03:00,
2013-09-13 03:08:00,66.6,65.7,29.70,WNW,298,0.0,1.0,97,0.00,,---,0.00,VWS V14.01,2013-09-13 07:08:00,
2013-09-13 03:10:00,66.6,65.7,29.70,WNW,297,0.0,1.0,97,0.00,,---,0.00,VWS V14.01,2013-09-13 07:10:00,
2013-09-13 03:13:00,66.6,65.7,29.70,WNW,298,0.0,0.0,97,0.00,,---,0.00,VWS V14.01,2013-09-13 07:13:00,
2013-09-13 03:18:00,66.5,65.6,29.70,ENE,67,0.0,1.0,97,0.00,,---,0.00,VWS V14.01,2013-09-13 07:18:00,
2013-09-13 03:20:00,66.4,65.5,29.70,ENE,66,0.0,1.0,97,0.00,,---,0.00,VWS V14.01,2013-09-13 07:20:00,
2013-09-13 03:23:00,66.3,65.4,29.70,ENE,67,0.0,0.0,97,0.00,,---,0.00,VWS V14.01,2013-09-13 07:23:00,
2013-09-13 03:28:00,66.0,65.1,29.70,ENE,66,0.0,0.0,97,0.00,,---,0.00,VWS V14.01,2013-09-13 07:28:00,
2013-09-13 03:30:00,66.0,65.1,29.71,ENE,67,0.0,0.0,97,0.00,,---,0.00,VWS V14.01,2013-09-13 07:30:00,
2013-09-13 03:37:00,65.8,64.9,29.70,WNW,285,0.0,0.0,97,0.00,,---,0.00,VWS V14.01,2013-09-13 07:37:00,
2013-09-13 03:40:00,65.8,64.9,29.71,WNW,291,0.0,1.0,97,0.00,,---,0.00,VWS V14.01,2013-09-13 07:40:00,
2013-09-13 03:42:00,65.8,64.9,29.71,WNW,291,0.0,0.0,97,0.00,,---,0.00,VWS V14.01,2013-09-13 07:42:00,
2013-09-13 03:47:00,65.8,64.9,29.71,WNW,291,0.0,0.0,97,0.00,,---,0.00,VWS V14.01,2013-09-13 07:47:00,
2013-09-13 03:50:00,65.8,64.9,29.71,WNW,291,0.0,0.0,97,0.00,,---,0.00,VWS V14.01,2013-09-13 07:50:00,
2013-09-13 03:52:00,65.7,64.8,29.71,WNW,291,0.0,0.0,97,0.00,,---,0.00,VWS V14.01,2013-09-13 07:52:00,
2013-09-13 03:57:00,65.5,64.6,29.71,WNW,291,0.0,0.0,97,0.00,,---,0.00,VWS V14.01,2013-09-13 07:57:00,
2013-09-13 04:00:00,65.5,64.6,29.71,WNW,291,0.0,0.0,97,0.00,,---,0.00,VWS V14.01,2013-09-13 08:00:00,
2013-09-13 04:02:00,65.4,64.5,29.71,WNW,291,0.0,0.0,97,0.00,,---,0.00,VWS V14.01,2013-09-13 08:02:00,
2013-09-13 04:07:00,65.2,64.3,29.71,WNW,291,0.0,0.0,97,0.00,,---,0.00,VWS V14.01,2013-09-13 08:07:00,
2013-09-13 04:10:00,65.2,64.3,29.71,WNW,291,0.0,0.0,97,0.00,,---,0.00,VWS V14.01,2013-09-13 08:10:00,
2013-09-13 04:13:00,65.1,64.2,29.71,WNW,291,0.0,0.0,97,0.00,,---,0.00,VWS V14.01,2013-09-13 08:13:00,
2013-09-13 04:18:00,64.9,64.0,29.71,WNW,291,0.0,0.0,97,0.00,,---,0.00,VWS V14.01,2013-09-13 08:18:00,
2013-09-13 04:20:00,64.9,64.0,29.71,WNW,291,0.0,0.0,97,0.00,,---,0.00,VWS V14.01,2013-09-13 08:20:00,
2013-09-13 04:23:00,64.7,63.8,29.71,WNW,291,0.0,0.0,97,0.00,,---,0.00,VWS V14.01,2013-09-13 08:23:00,
2013-09-13 04:28:00,64.6,63.7,29.71,WNW,291,0.0,0.0,97,0.00,,---,0.00,VWS V14.01,2013-09-13 08:28:00,
2013-09-13 04:30:00,64.5,63.6,29.71,WNW,291,0.0,0.0,97,0.00,,---,0.00,VWS V14.01,2013-09-13 08:30:00,
2013-09-13 04:33:00,64.4,63.5,29.71,WNW,291,0.0,0.0,97,0.00,,---,0.00,VWS V14.01,2013-09-13 08:33:00,
2013-09-13 04:38:00,64.3,63.7,29.71,WNW,291,0.0,0.0,98,0.00,,---,0.00,VWS V14.01,2013-09-13 08:38:00,
2013-09-13 04:40:00,64.3,63.7,29.71,WNW,291,0.0,0.0,98,0.00,,---,0.00,VWS V14.01,2013-09-13 08:40:00,
2013-09-13 04:43:00,64.3,63.7,29.71,WNW,291,0.0,0.0,98,0.00,,---,0.00,VWS V14.01,2013-09-13 08:43:00,
2013-09-13 04:48:00,64.1,63.5,29.71,ENE,62,1.0,1.0,98,0.00,,---,0.00,VWS V14.01,2013-09-13 08:48:00,
2013-09-13 04:50:00,64.1,63.5,29.71,NNE,30,0.0,1.0,98,0.00,,---,0.00,VWS V14.01,2013-09-13 08:50:00,
2013-09-13 04:53:00,64.1,63.5,29.71,North,350,0.0,1.0,98,0.00,,---,0.00,VWS V14.01,2013-09-13 08:53:00,
2013-09-13 04:58:00,64.2,63.6,29.72,North,355,0.0,1.0,98,0.00,,---,0.00,VWS V14.01,2013-09-13 08:58:00,
2013-09-13 05:00:00,64.1,63.5,29.72,North,356,0.0,1.0,98,0.00,,---,0.00,VWS V14.01,2013-09-13 09:00:00,
2013-09-13 05:03:00,64.0,63.4,29.72,North,355,0.0,0.0,98,0.00,,---,0.00,VWS V14.01,2013-09-13 09:03:00,
2013-09-13 05:08:00,63.9,63.3,29.72,North,356,0.0,0.0,98,0.00,,---,0.00,VWS V14.01,2013-09-13 09:08:00,
2013-09-13 05:10:00,63.9,63.3,29.72,North,356,0.0,1.0,98,0.00,,---,0.00,VWS V14.01,2013-09-13 09:10:00,
2013-09-13 05:13:00,63.9,63.3,29.72,North,354,0.0,1.0,98,0.00,,---,0.00,VWS V14.01,2013-09-13 09:13:00,
2013-09-13 05:18:00,63.7,63.1,29.72,North,354,0.0,1.0,98,0.00,,---,0.00,VWS V14.01,2013-09-13 09:18:00,
2013-09-13 05:20:00,63.7,63.1,29.72,North,354,0.0,1.0,98,0.00,,---,0.00,VWS V14.01,2013-09-13 09:20:00,
2013-09-13 05:23:00,63.5,62.9,29.72,North,354,0.0,0.0,98,0.00,,---,0.00,VWS V14.01,2013-09-13 09:23:00,
2013-09-13 05:28:00,63.4,62.8,29.71,North,354,0.0,0.0,98,0.00,,---,0.00,VWS V14.01,2013-09-13 09:28:00,
2013-09-13 05:30:00,63.4,62.8,29.71,North,354,0.0,0.0,98,0.00,,---,0.00,VWS V14.01,2013-09-13 09:30:00,
2013-09-13 05:33:00,63.4,62.8,29.71,North,354,0.0,0.0,98,0.00,,---,0.00,VWS V14.01,2013-09-13 09:33:00,
2013-09-13 05:38:00,63.3,62.7,29.71,North,354,0.0,0.0,98,0.00,,---,0.00,VWS V14.01,2013-09-13 09:38:00,
2013-09-13 05:40:00,63.3,62.7,29.71,North,354,0.0,0.0,98,0.00,,---,0.00,VWS V14.01,2013-09-13 09:40:00,
2013-09-13 05:43:00,63.3,62.7,29.71,North,354,0.0,0.0,98,0.00,,---,0.00,VWS V14.01,2013-09-13 09:43:00,
2013-09-13 05:48:00,63.3,62.7,29.71,North,354,0.0,0.0,98,0.00,,---,0.00,VWS V14.01,2013-09-13 09:48:00,
2013-09-13 05:50:00,63.3,62.7,29.71,North,354,0.0,0.0,98,0.00,,---,0.00,VWS V14.01,2013-09-13 09:50:00,
2013-09-13 05:53:00,63.2,62.6,29.72,North,354,0.0,0.0,98,0.00,,---,0.00,VWS V14.01,2013-09-13 09:53:00,
2013-09-13 05:58:00,63.0,62.4,29.72,North,354,0.0,0.0,98,0.00,,---,0.00,VWS V14.01,2013-09-13 09:58:00,
2013-09-13 06:00:00,63.0,62.4,29.72,North,354,0.0,0.0,98,0.00,,---,0.00,VWS V14.01,2013-09-13 10:00:00,
2013-09-13 06:03:00,63.0,62.4,29.72,North,354,0.0,0.0,98,0.00,,---,0.00,VWS V14.01,2013-09-13 10:03:00,
2013-09-13 06:08:00,62.9,62.3,29.72,NNW,339,0.0,0.0,98,0.00,,---,0.00,VWS V14.01,2013-09-13 10:08:00,
2013-09-13 06:10:00,62.9,62.3,29.73,WNW,293,0.0,1.0,98,0.00,,---,0.00,VWS V14.01,2013-09-13 10:10:00,
2013-09-13 06:13:00,63.0,62.7,29.73,WNW,292,0.0,0.0,99,0.00,,---,0.00,VWS V14.01,2013-09-13 10:13:00,
2013-09-13 06:18:00,63.1,62.8,29.72,WNW,292,0.0,0.0,99,0.00,,---,0.00,VWS V14.01,2013-09-13 10:18:00,
2013-09-13 06:20:00,63.1,62.8,29.73,WNW,294,0.0,0.0,99,0.00,,---,0.00,VWS V14.01,2013-09-13 10:20:00,
2013-09-13 06:23:00,63.2,62.9,29.73,WNW,293,0.0,0.0,99,0.00,,---,0.00,VWS V14.01,2013-09-13 10:23:00,
2013-09-13 06:28:00,63.3,63.0,29.73,ENE,60,1.0,2.0,99,0.00,,---,0.00,VWS V14.01,2013-09-13 10:28:00,
2013-09-13 06:30:00,63.3,63.0,29.73,ENE,60,0.0,2.0,99,0.00,,---,0.00,VWS V14.01,2013-09-13 10:30:00,
2013-09-13 06:33:00,63.4,63.1,29.73,ENE,71,1.0,2.0,99,0.00,,---,0.00,VWS V14.01,2013-09-13 10:33:00,
2013-09-13 06:38:00,63.6,63.3,29.73,WSW,252,1.0,2.0,99,0.00,,---,0.00,VWS V14.01,2013-09-13 10:38:00,
2013-09-13 06:40:00,63.6,63.3,29.73,SW,236,0.0,2.0,99,0.00,,---,0.00,VWS V14.01,2013-09-13 10:40:00,
2013-09-13 06:43:00,63.6,63.3,29.73,SW,236,0.0,0.0,99,0.00,,---,0.00,VWS V14.01,2013-09-13 10:43:00,
2013-09-13 06:48:00,63.7,63.4,29.74,East,82,0.0,1.0,99,0.00,,---,0.00,VWS V14.01,2013-09-13 10:48:00,
2013-09-13 06:50:00,63.7,63.4,29.74,ESE,107,0.0,1.0,99,0.00,,---,0.00,VWS V14.01,2013-09-13 10:50:00,
2013-09-13 06:53:00,63.7,63.4,29.74,ESE,106,0.0,0.0,99,0.00,,---,0.00,VWS V14.01,2013-09-13 10:53:00,
2013-09-13 06:58:00,63.8,63.5,29.75,East,98,0.0,1.0,99,0.00,,---,0.00,VWS V14.01,2013-09-13 10:58:00,
2013-09-13 07:00:00,63.8,63.5,29.75,East,99,0.0,1.0,99,0.00,,---,0.00,VWS V14.01,2013-09-13 11:00:00,
2013-09-13 07:03:00,63.8,63.5,29.75,East,91,0.0,1.0,99,0.00,,---,0.00,VWS V14.01,2013-09-13 11:03:00,
2013-09-13 07:08:00,63.9,63.6,29.75,East,83,1.0,1.0,99,0.00,,---,0.00,VWS V14.01,2013-09-13 11:08:00,
2013-09-13 07:10:00,64.0,63.7,29.75,East,82,0.0,1.0,99,0.00,,---,0.00,VWS V14.01,2013-09-13 11:10:00,
2013-09-13 07:13:00,64.1,63.8,29.75,East,81,0.0,1.0,99,0.00,,---,0.00,VWS V14.01,2013-09-13 11:13:00,
2013-09-13 07:18:00,64.1,63.8,29.75,East,81,0.0,1.0,99,0.00,,---,0.00,VWS V14.01,2013-09-13 11:18:00,
2013-09-13 07:20:00,64.1,63.8,29.75,North,358,0.0,1.0,99,0.00,,---,0.00,VWS V14.01,2013-09-13 11:20:00,
2013-09-13 07:23:00,64.2,63.9,29.75,North,359,0.0,0.0,99,0.00,,---,0.00,VWS V14.01,2013-09-13 11:23:00,
2013-09-13 07:28:00,64.3,63.7,29.75,North,359,0.0,0.0,98,0.00,,---,0.00,VWS V14.01,2013-09-13 11:28:00,
2013-09-13 07:30:00,64.3,63.7,29.75,North,358,0.0,0.0,98,0.00,,---,0.00,VWS V14.01,2013-09-13 11:30:00,
2013-09-13 07:33:00,64.3,63.7,29.76,North,358,0.0,0.0,98,0.00,,---,0.00,VWS V14.01,2013-09-13 11:33:00,
2013-09-13 07:38:00,64.5,64.2,29.76,WNW,295,1.0,1.0,99,0.00,,---,0.00,VWS V14.01,2013-09-13 11:38:00,
2013-09-13 07:40:00,64.5,64.2,29.76,WNW,290,0.0,1.0,99,0.00,,---,0.00,VWS V14.01,2013-09-13 11:40:00,
2013-09-13 07:43:00,64.5,63.9,29.76,West,271,0.0,0.0,98,0.00,,---,0.00,VWS V14.01,2013-09-13 11:43:00,
2013-09-13 07:48:00,64.5,63.9,29.76,West,271,0.0,0.0,98,0.00,,---,0.00,VWS V14.01,2013-09-13 11:48:00,
2013-09-13 07:50:00,64.5,63.9,29.77,West,271,0.0,0.0,98,0.00,,---,0.00,VWS V14.01,2013-09-13 11:50:00,
2013-09-13 07:53:00,64.5,63.9,29.77,West,271,0.0,0.0,98,0.00,,---,0.00,VWS V14.01,2013-09-13 11:53:00,
2013-09-13 07:58:00,64.5,63.9,29.77,West,271,0.0,0.0,98,0.00,,---,0.00,VWS V14.01,2013-09-13 11:58:00,
2013-09-13 08:00:00,64.5,63.9,29.77,West,271,0.0,0.0,98,0.00,,---,0.00,VWS V14.01,2013-09-13 12:00:00,
2013-09-13 08:03:00,64.5,63.9,29.76,West,271,0.0,0.0,98,0.00,,---,0.00,VWS V14.01,2013-09-13 12:03:00,
2013-09-13 08:08:00,64.4,63.8,29.76,West,271,0.0,0.0,98,0.00,,---,0.00,VWS V14.01,2013-09-13 12:08:00,
2013-09-13 08:10:00,64.4,63.8,29.77,West,270,0.0,0.0,98,0.00,,---,0.00,VWS V14.01,2013-09-13 12:10:00,
2013-09-13 08:13:00,64.6,64.0,29.77,West,271,0.0,1.0,98,0.00,,---,0.00,VWS V14.01,2013-09-13 12:13:00,
2013-09-13 08:18:00,64.8,64.2,29.77,West,271,0.0,1.0,98,0.00,,---,0.00,VWS V14.01,2013-09-13 12:18:00,
2013-09-13 08:20:00,64.8,64.2,29.77,West,271,0.0,1.0,98,0.00,,---,0.00,VWS V14.01,2013-09-13 12:20:00,
2013-09-13 08:23:00,64.9,64.3,29.77,West,271,0.0,0.0,98,0.00,,---,0.00,VWS V14.01,2013-09-13 12:23:00,
2013-09-13 08:28:00,65.0,64.4,29.76,West,271,0.0,0.0,98,0.00,,---,0.00,VWS V14.01,2013-09-13 12:28:00,
2013-09-13 08:30:00,65.0,64.4,29.76,WNW,288,0.0,0.0,98,0.00,,---,0.00,VWS V14.01,2013-09-13 12:30:00,
2013-09-13 08:33:00,65.1,64.5,29.76,ENE,70,0.0,1.0,98,0.00,,---,0.00,VWS V14.01,2013-09-13 12:33:00,
2013-09-13 08:38:00,65.3,64.7,29.76,ENE,70,0.0,1.0,98,0.00,,---,0.00,VWS V14.01,2013-09-13 12:38:00,
2013-09-13 08:40:00,65.4,64.8,29.76,ENE,69,0.0,1.0,98,0.00,,---,0.00,VWS V14.01,2013-09-13 12:40:00,
2013-09-13 08:43:00,65.7,65.1,29.76,SW,217,0.0,1.0,98,0.00,,---,0.00,VWS V14.01,2013-09-13 12:43:00,
2013-09-13 08:48:00,65.8,64.9,29.76,WSW,249,0.0,1.0,97,0.00,,---,0.00,VWS V14.01,2013-09-13 12:48:00,
2013-09-13 08:50:00,65.8,64.9,29.76,WSW,256,0.0,1.0,97,0.00,,---,0.00,VWS V14.01,2013-09-13 12:50:00,
2013-09-13 08:53:00,66.0,64.8,29.76,WSW,256,0.0,1.0,96,0.00,,---,0.00,VWS V14.01,2013-09-13 12:53:00,
2013-09-13 08:58:00,66.1,64.3,29.77,WSW,256,0.0,1.0,94,0.00,,---,0.00,VWS V14.01,2013-09-13 12:58:00,
2013-09-13 09:00:00,66.1,64.3,29.77,WSW,256,0.0,1.0,94,0.00,,---,0.00,VWS V14.01,2013-09-13 13:00:00,
2013-09-13 09:03:00,66.5,64.7,29.77,WSW,256,0.0,0.0,94,0.00,,---,0.00,VWS V14.01,2013-09-13 13:03:00,
2013-09-13 09:08:00,67.0,64.3,29.77,WSW,256,0.0,0.0,91,0.00,,---,0.00,VWS V14.01,2013-09-13 13:08:00,
2013-09-13 09:10:00,67.1,64.4,29.77,WSW,256,0.0,0.0,91,0.00,,---,0.00,VWS V14.01,2013-09-13 13:10:00,
2013-09-13 09:13:00,67.9,64.9,29.77,West,266,0.0,1.0,90,0.00,,---,0.00,VWS V14.01,2013-09-13 13:13:00,
2013-09-13 09:18:00,69.0,64.6,29.77,WSW,251,1.0,1.0,86,0.00,,---,0.00,VWS V14.01,2013-09-13 13:18:00,
2013-09-13 09:20:00,69.2,65.5,29.77,WSW,251,0.0,1.0,88,0.00,,---,0.00,VWS V14.01,2013-09-13 13:20:00,
2013-09-13 09:23:00,69.8,64.8,29.77,WSW,250,2.0,6.0,84,0.00,,---,0.00,VWS V14.01,2013-09-13 13:23:00,
2013-09-13 09:28:00,69.8,63.0,29.77,SW,217,1.0,6.0,79,0.00,,---,0.00,VWS V14.01,2013-09-13 13:28:00,
2013-09-13 09:30:00,69.9,63.8,29.77,WSW,245,4.0,6.0,81,0.00,,---,0.00,VWS V14.01,2013-09-13 13:30:00,
2013-09-13 09:33:00,70.1,63.3,29.78,West,278,3.0,5.0,79,0.00,,---,0.00,VWS V14.01,2013-09-13 13:33:00,
2013-09-13 09:38:00,70.2,61.5,29.78,West,280,3.0,7.0,74,0.00,,---,0.00,VWS V14.01,2013-09-13 13:38:00,
2013-09-13 09:40:00,70.3,62.8,29.78,WNW,285,3.0,7.0,77,0.00,,---,0.00,VWS V14.01,2013-09-13 13:40:00,
2013-09-13 09:43:00,70.5,62.2,29.78,WNW,298,2.0,5.0,75,0.00,,---,0.00,VWS V14.01,2013-09-13 13:43:00,
2013-09-13 09:48:00,70.9,62.2,29.78,WNW,285,2.0,5.0,74,0.00,,---,0.00,VWS V14.01,2013-09-13 13:48:00,
2013-09-13 09:50:00,71.0,63.4,29.78,WNW,297,3.0,5.0,77,0.00,,---,0.00,VWS V14.01,2013-09-13 13:50:00,
2013-09-13 09:53:00,71.1,62.4,29.78,NW,326,3.0,9.0,74,0.00,,---,0.00,VWS V14.01,2013-09-13 13:53:00,
2013-09-13 09:58:00,71.1,60.8,29.78,NNW,342,4.0,9.0,70,0.00,,---,0.00,VWS V14.01,2013-09-13 13:58:00,
2013-09-13 10:00:00,71.2,61.3,29.78,WNW,284,3.0,9.0,71,0.00,,---,0.00,VWS V14.01,2013-09-13 14:00:00,
2013-09-13 10:03:00,71.3,61.8,29.78,West,269,4.0,6.0,72,0.00,,---,0.00,VWS V14.01,2013-09-13 14:03:00,
2013-09-13 10:08:00,71.4,61.5,29.78,WNW,284,3.0,6.0,71,0.00,,---,0.00,VWS V14.01,2013-09-13 14:08:00,
2013-09-13 10:10:00,71.5,61.6,29.78,West,275,2.0,6.0,71,0.00,,---,0.00,VWS V14.01,2013-09-13 14:10:00,
2013-09-13 10:13:00,71.6,61.7,29.78,NE,43,0.0,5.0,71,0.00,,---,0.00,VWS V14.01,2013-09-13 14:13:00,
2013-09-13 10:18:00,72.0,62.1,29.78,NNW,327,0.0,5.0,71,0.00,,---,0.00,VWS V14.01,2013-09-13 14:18:00,
2013-09-13 10:20:00,72.1,62.6,29.78,WNW,300,3.0,5.0,72,0.00,,---,0.00,VWS V14.01,2013-09-13 14:20:00,
2013-09-13 10:23:00,72.2,62.3,29.79,NW,309,4.0,5.0,71,0.00,,---,0.00,VWS V14.01,2013-09-13 14:23:00,
2013-09-13 10:28:00,72.3,62.8,29.79,WNW,288,3.0,5.0,72,0.00,,---,0.00,VWS V14.01,2013-09-13 14:28:00,
2013-09-13 10:30:00,72.4,62.5,29.79,WNW,288,2.0,5.0,71,0.00,,---,0.00,VWS V14.01,2013-09-13 14:30:00,
2013-09-13 10:33:00,72.6,61.0,29.79,North,359,1.0,4.0,67,0.00,,---,0.00,VWS V14.01,2013-09-13 14:33:00,
2013-09-13 10:38:00,72.7,63.2,29.79,North,6,0.0,4.0,72,0.00,,---,0.00,VWS V14.01,2013-09-13 14:38:00,
2013-09-13 10:40:00,72.7,62.4,29.79,North,9,0.0,4.0,70,0.00,,---,0.00,VWS V14.01,2013-09-13 14:40:00,
2013-09-13 10:43:00,73.1,61.9,29.79,NNW,341,0.0,4.0,68,0.00,,---,0.00,VWS V14.01,2013-09-13 14:43:00,
2013-09-13 10:48:00,73.4,62.6,29.79,NNW,330,0.0,4.0,69,0.00,,---,0.00,VWS V14.01,2013-09-13 14:48:00,
2013-09-13 10:50:00,73.5,63.9,29.79,North,5,2.0,4.0,72,0.00,,---,0.00,VWS V14.01,2013-09-13 14:50:00,
2013-09-13 10:53:00,73.7,61.7,29.79,NNW,345,0.0,4.0,66,0.00,,---,0.00,VWS V14.01,2013-09-13 14:53:00,
2013-09-13 10:58:00,74.2,61.2,29.78,ENE,67,1.0,6.0,64,0.00,,---,0.00,VWS V14.01,2013-09-13 14:58:00,
2013-09-13 11:00:00,74.2,61.2,29.79,East,98,0.0,6.0,64,0.00,,---,0.00,VWS V14.01,2013-09-13 15:00:00,
2013-09-13 11:03:00,74.1,62.0,29.79,ENE,58,1.0,6.0,66,0.00,,---,0.00,VWS V14.01,2013-09-13 15:03:00,
2013-09-13 11:08:00,74.3,60.9,29.79,ENE,78,0.0,7.0,63,0.00,,---,0.00,VWS V14.01,2013-09-13 15:08:00,
2013-09-13 11:10:00,74.4,61.0,29.79,ENE,67,0.0,7.0,63,0.00,,---,0.00,VWS V14.01,2013-09-13 15:10:00,
2013-09-13 11:13:00,74.5,60.6,29.79,NNW,328,1.0,6.0,62,0.00,,---,0.00,VWS V14.01,2013-09-13 15:13:00,
2013-09-13 11:18:00,74.6,59.8,29.79,ENE,72,3.0,9.0,60,0.00,,---,0.00,VWS V14.01,2013-09-13 15:18:00,
2013-09-13 11:20:00,74.6,59.8,29.79,NNE,26,5.0,9.0,60,0.00,,---,0.00,VWS V14.01,2013-09-13 15:20:00,
2013-09-13 11:23:00,74.4,59.6,29.79,ENE,72,0.0,7.0,60,0.00,,---,0.00,VWS V14.01,2013-09-13 15:23:00,
2013-09-13 11:28:00,74.4,59.2,29.79,NNW,330,5.0,7.0,59,0.00,,---,0.00,VWS V14.01,2013-09-13 15:28:00,
2013-09-13 11:30:00,74.4,59.2,29.79,NNW,345,3.0,7.0,59,0.00,,---,0.00,VWS V14.01,2013-09-13 15:30:00,
2013-09-13 11:33:00,74.3,59.5,29.79,WSW,255,3.0,5.0,60,0.00,,---,0.00,VWS V14.01,2013-09-13 15:33:00,
2013-09-13 11:38:00,74.4,61.4,29.78,West,281,1.0,5.0,64,0.00,,---,0.00,VWS V14.01,2013-09-13 15:38:00,
2013-09-13 11:40:00,74.5,60.6,29.78,NW,312,2.0,5.0,62,0.00,,---,0.00,VWS V14.01,2013-09-13 15:40:00,
2013-09-13 11:43:00,74.5,60.2,29.78,NW,306,1.0,6.0,61,0.00,,---,0.00,VWS V14.01,2013-09-13 15:43:00,
2013-09-13 11:48:00,74.2,62.1,29.79,NW,311,3.0,6.0,66,0.00,,---,0.00,VWS V14.01,2013-09-13 15:48:00,
2013-09-13 11:50:00,74.1,61.2,29.79,NNE,18,4.0,6.0,64,0.00,,---,0.00,VWS V14.01,2013-09-13 15:50:00,
2013-09-13 11:53:00,73.4,59.2,29.79,WNW,288,4.0,5.0,61,0.00,,---,0.00,VWS V14.01,2013-09-13 15:53:00,
2013-09-13 11:58:00,73.7,62.1,29.79,NE,46,0.0,5.0,67,0.00,,---,0.00,VWS V14.01,2013-09-13 15:58:00,
2013-09-13 12:00:00,73.7,62.1,29.79,NE,46,0.0,5.0,67,0.00,,---,0.00,VWS V14.01,2013-09-13 16:00:00,
2013-09-13 12:03:00,74.8,61.4,29.79,North,358,1.0,3.0,63,0.00,,---,0.00,VWS V14.01,2013-09-13 16:03:00,
2013-09-13 12:08:00,75.0,58.3,29.79,NNW,347,3.0,9.0,56,0.00,,---,0.00,VWS V14.01,2013-09-13 16:08:00,
2013-09-13 12:10:00,74.9,58.2,29.79,WNW,293,2.0,9.0,56,0.00,,---,0.00,VWS V14.01,2013-09-13 16:10:00,
2013-09-13 12:13:00,74.6,58.4,29.79,NE,56,2.0,9.0,57,0.00,,---,0.00,VWS V14.01,2013-09-13 16:13:00,
2013-09-13 12:18:00,74.7,59.9,29.79,ENE,70,0.0,9.0,60,0.00,,---,0.00,VWS V14.01,2013-09-13 16:18:00,
2013-09-13 12:20:00,74.8,60.0,29.79,NW,305,0.0,9.0,60,0.00,,---,0.00,VWS V14.01,2013-09-13 16:20:00,
2013-09-13 12:23:00,75.3,60.5,29.79,North,359,1.0,5.0,60,0.00,,---,0.00,VWS V14.01,2013-09-13 16:23:00,
2013-09-13 12:28:00,75.5,59.2,29.79,WNW,295,2.0,8.0,57,0.00,,---,0.00,VWS V14.01,2013-09-13 16:28:00,
2013-09-13 12:30:00,75.5,59.2,29.79,NW,316,1.0,8.0,57,0.00,,---,0.00,VWS V14.01,2013-09-13 16:30:00,
2013-09-13 12:33:00,74.9,59.1,29.79,NE,48,2.0,7.0,58,0.00,,---,0.00,VWS V14.01,2013-09-13 16:33:00,
2013-09-13 12:38:00,75.0,61.6,29.79,NNW,331,0.0,7.0,63,0.00,,---,0.00,VWS V14.01,2013-09-13 16:38:00,
2013-09-13 12:40:00,75.1,60.8,29.78,NE,40,2.0,7.0,61,0.00,,---,0.00,VWS V14.01,2013-09-13 16:40:00,
2013-09-13 12:43:00,75.4,57.1,29.78,WNW,293,2.0,8.0,53,0.00,,---,0.00,VWS V14.01,2013-09-13 16:43:00,
2013-09-13 12:48:00,75.3,55.4,29.78,ENE,72,1.0,8.0,50,0.00,,---,0.00,VWS V14.01,2013-09-13 16:48:00,
2013-09-13 12:50:00,75.2,55.3,29.78,ENE,65,0.0,8.0,50,0.00,,---,0.00,VWS V14.01,2013-09-13 16:50:00,
2013-09-13 12:53:00,74.8,57.1,29.78,North,11,4.0,8.0,54,0.00,,---,0.00,VWS V14.01,2013-09-13 16:53:00,
2013-09-13 12:58:00,74.9,58.2,29.78,NW,325,4.0,8.0,56,0.00,,---,0.00,VWS V14.01,2013-09-13 16:58:00,
2013-09-13 13:00:00,74.8,58.1,29.78,NW,321,2.0,8.0,56,0.00,,---,0.00,VWS V14.01,2013-09-13 17:00:00,
2013-09-13 13:03:00,74.7,58.5,29.78,West,281,5.0,9.0,57,0.00,,---,0.00,VWS V14.01,2013-09-13 17:03:00,
2013-09-13 13:08:00,74.8,56.5,29.78,West,278,3.0,9.0,53,0.00,,---,0.00,VWS V14.01,2013-09-13 17:08:00,
2013-09-13 13:10:00,74.8,56.5,29.78,WNW,288,8.0,10.0,53,0.00,,---,0.00,VWS V14.01,2013-09-13 17:10:00,
2013-09-13 13:13:00,75.3,55.4,29.78,WNW,295,3.0,9.0,50,0.00,,---,0.00,VWS V14.01,2013-09-13 17:13:00,
2013-09-13 13:18:00,75.0,55.7,29.78,WNW,285,3.0,9.0,51,0.00,,---,0.00,VWS V14.01,2013-09-13 17:18:00,
2013-09-13 13:20:00,74.9,55.0,29.78,WSW,242,1.0,9.0,50,0.00,,---,0.00,VWS V14.01,2013-09-13 17:20:00,
2013-09-13 13:23:00,75.0,57.2,29.78,NNW,342,6.0,6.0,54,0.00,,---,0.00,VWS V14.01,2013-09-13 17:23:00,
2013-09-13 13:28:00,75.2,57.4,29.78,WNW,293,0.0,6.0,54,0.00,,---,0.00,VWS V14.01,2013-09-13 17:28:00,
2013-09-13 13:30:00,75.2,56.9,29.78,West,281,3.0,6.0,53,0.00,,---,0.00,VWS V14.01,2013-09-13 17:30:00,
2013-09-13 13:33:00,75.3,57.0,29.78,West,264,4.0,5.0,53,0.00,,---,0.00,VWS V14.01,2013-09-13 17:33:00,
2013-09-13 13:38:00,75.7,57.9,29.78,NNE,15,5.0,6.0,54,0.00,,---,0.00,VWS V14.01,2013-09-13 17:38:00,
2013-09-13 13:40:00,75.7,56.8,29.78,NNE,16,0.0,6.0,52,0.00,,---,0.00,VWS V14.01,2013-09-13 17:40:00,
2013-09-13 13:43:00,76.2,56.2,29.78,North,352,6.0,8.0,50,0.00,,---,0.00,VWS V14.01,2013-09-13 17:43:00,
2013-09-13 13:48:00,75.8,57.5,29.78,NE,46,5.0,9.0,53,0.00,,---,0.00,VWS V14.01,2013-09-13 17:48:00,
2013-09-13 13:50:00,75.8,57.5,29.78,NE,56,5.0,9.0,53,0.00,,---,0.00,VWS V14.01,2013-09-13 17:50:00,
2013-09-13 13:53:00,75.8,58.0,29.78,WNW,287,5.0,7.0,54,0.00,,---,0.00,VWS V14.01,2013-09-13 17:53:00,
2013-09-13 13:59:00,76.1,57.2,29.78,NNE,28,7.0,9.0,52,0.00,,---,0.00,VWS V14.01,2013-09-13 17:59:00,
2013-09-13 14:00:00,76.1,57.2,29.78,NE,37,5.0,9.0,52,0.00,,---,0.00,VWS V14.01,2013-09-13 18:00:00,
2013-09-13 14:04:00,75.7,57.4,29.78,NW,322,10.0,10.0,53,0.00,,---,0.00,VWS V14.01,2013-09-13 18:04:00,
2013-09-13 14:09:00,74.7,57.0,29.78,NW,321,0.0,10.0,54,0.00,,---,0.00,VWS V14.01,2013-09-13 18:09:00,
2013-09-13 14:10:00,74.6,56.9,29.78,North,11,4.0,10.0,54,0.00,,---,0.00,VWS V14.01,2013-09-13 18:10:00,
2013-09-13 14:14:00,74.1,57.9,29.78,WNW,294,0.0,4.0,57,0.00,,---,0.00,VWS V14.01,2013-09-13 18:14:00,
2013-09-13 14:19:00,74.0,59.7,29.78,West,276,1.0,4.0,61,0.00,,---,0.00,VWS V14.01,2013-09-13 18:19:00,
2013-09-13 14:20:00,74.1,58.9,29.78,West,275,0.0,4.0,59,0.00,,---,0.00,VWS V14.01,2013-09-13 18:20:00,
2013-09-13 14:24:00,74.8,58.1,29.78,NW,321,4.0,6.0,56,0.00,,---,0.00,VWS V14.01,2013-09-13 18:24:00,
2013-09-13 14:29:00,75.5,54.5,29.78,West,266,6.0,12.0,48,0.00,,---,0.00,VWS V14.01,2013-09-13 18:29:00,
2013-09-13 14:30:00,75.5,54.5,29.78,North,354,3.0,12.0,48,0.00,,---,0.00,VWS V14.01,2013-09-13 18:30:00,
2013-09-13 14:34:00,75.9,57.0,29.77,WNW,290,2.0,10.0,52,0.00,,---,0.00,VWS V14.01,2013-09-13 18:34:00,
2013-09-13 14:39:00,76.2,56.8,29.77,NW,323,4.0,11.0,51,0.00,,---,0.00,VWS V14.01,2013-09-13 18:39:00,
2013-09-13 14:40:00,76.2,56.8,29.77,NW,305,10.0,11.0,51,0.00,,---,0.00,VWS V14.01,2013-09-13 18:40:00,
2013-09-13 14:44:00,75.9,53.7,29.77,WNW,298,5.0,10.0,46,0.00,,---,0.00,VWS V14.01,2013-09-13 18:44:00,
2013-09-13 14:49:00,75.4,53.8,29.77,NNW,328,3.0,10.0,47,0.00,,---,0.00,VWS V14.01,2013-09-13 18:49:00,
2013-09-13 14:50:00,75.4,53.8,29.77,North,7,7.0,10.0,47,0.00,,---,0.00,VWS V14.01,2013-09-13 18:50:00,
2013-09-13 14:54:00,75.1,52.9,29.77,WNW,290,6.0,11.0,46,0.00,,---,0.00,VWS V14.01,2013-09-13 18:54:00,
2013-09-13 14:59:00,75.0,53.4,29.77,NW,319,2.0,11.0,47,0.00,,---,0.00,VWS V14.01,2013-09-13 18:59:00,
2013-09-13 15:00:00,75.1,53.5,29.77,NW,312,1.0,11.0,47,0.00,,---,0.00,VWS V14.01,2013-09-13 19:00:00,
2013-09-13 15:04:00,75.2,55.3,29.77,NW,305,4.0,9.0,50,0.00,,---,0.00,VWS V14.01,2013-09-13 19:04:00,
2013-09-13 15:09:00,75.5,56.1,29.77,NE,43,2.0,9.0,51,0.00,,---,0.00,VWS V14.01,2013-09-13 19:09:00,
2013-09-13 15:10:00,75.5,56.1,29.77,NNE,23,6.0,9.0,51,0.00,,---,0.00,VWS V14.01,2013-09-13 19:10:00,
2013-09-13 15:14:00,75.9,54.8,29.76,NNW,342,3.0,10.0,48,0.00,,---,0.00,VWS V14.01,2013-09-13 19:14:00,
2013-09-13 15:19:00,76.0,54.9,29.76,NNW,348,7.0,12.0,48,0.00,,---,0.00,VWS V14.01,2013-09-13 19:19:00,
2013-09-13 15:20:00,76.0,54.9,29.76,NW,321,3.0,12.0,48,0.00,,---,0.00,VWS V14.01,2013-09-13 19:20:00,
2013-09-13 15:24:00,75.9,55.4,29.76,North,1,4.0,11.0,49,0.00,,---,0.00,VWS V14.01,2013-09-13 19:24:00,
2013-09-13 15:29:00,76.0,54.9,29.77,WNW,283,4.0,14.0,48,0.00,,---,0.00,VWS V14.01,2013-09-13 19:29:00,
2013-09-13 15:30:00,76.0,54.3,29.77,NE,36,5.0,14.0,47,0.00,,---,0.00,VWS V14.01,2013-09-13 19:30:00,
2013-09-13 15:34:00,75.5,54.5,29.77,NNW,330,3.0,10.0,48,0.00,,---,0.00,VWS V14.01,2013-09-13 19:34:00,
2013-09-13 15:39:00,75.7,56.3,29.77,WNW,290,7.0,10.0,51,0.00,,---,0.00,VWS V14.01,2013-09-13 19:39:00,
2013-09-13 15:40:00,75.7,56.3,29.77,NNW,337,4.0,10.0,51,0.00,,---,0.00,VWS V14.01,2013-09-13 19:40:00,
2013-09-13 15:44:00,75.9,56.5,29.77,NW,308,6.0,7.0,51,0.00,,---,0.00,VWS V14.01,2013-09-13 19:44:00,
2013-09-13 15:49:00,75.8,52.4,29.77,WNW,300,3.0,14.0,44,0.00,,---,0.00,VWS V14.01,2013-09-13 19:49:00,
2013-09-13 15:50:00,75.8,52.4,29.77,NNW,345,3.0,14.0,44,0.00,,---,0.00,VWS V14.01,2013-09-13 19:50:00,
2013-09-13 15:54:00,75.9,51.8,29.77,NNW,347,9.0,12.0,43,0.00,,---,0.00,VWS V14.01,2013-09-13 19:54:00,
2013-09-13 15:59:00,76.0,53.2,29.77,NE,34,5.0,12.0,45,0.00,,---,0.00,VWS V14.01,2013-09-13 19:59:00,
2013-09-13 16:00:00,76.0,53.2,29.77,NE,36,4.0,12.0,45,0.00,,---,0.00,VWS V14.01,2013-09-13 20:00:00,
2013-09-13 16:04:00,76.0,52.5,29.77,NW,326,5.0,9.0,44,0.00,,---,0.00,VWS V14.01,2013-09-13 20:04:00,
2013-09-13 16:09:00,75.9,53.1,29.77,WSW,250,1.0,9.0,45,0.00,,---,0.00,VWS V14.01,2013-09-13 20:09:00,
2013-09-13 16:10:00,75.9,53.1,29.77,NW,314,0.0,9.0,45,0.00,,---,0.00,VWS V14.01,2013-09-13 20:10:00,
2013-09-13 16:14:00,76.2,52.7,29.77,NW,318,2.0,10.0,44,0.00,,---,0.00,VWS V14.01,2013-09-13 20:14:00,
2013-09-13 16:19:00,76.4,55.3,29.77,West,274,2.0,10.0,48,0.00,,---,0.00,VWS V14.01,2013-09-13 20:19:00,
2013-09-13 16:20:00,76.4,55.3,29.77,West,271,0.0,10.0,48,0.00,,---,0.00,VWS V14.01,2013-09-13 20:20:00,
2013-09-13 16:24:00,76.6,54.3,29.77,NW,310,3.0,6.0,46,0.00,,---,0.00,VWS V14.01,2013-09-13 20:24:00,
2013-09-13 16:29:00,76.5,53.6,29.77,NNW,330,3.0,7.0,45,0.00,,---,0.00,VWS V14.01,2013-09-13 20:29:00,
2013-09-13 16:30:00,76.5,53.6,29.77,NNW,327,2.0,7.0,45,0.00,,---,0.00,VWS V14.01,2013-09-13 20:30:00,
2013-09-13 16:34:00,76.2,53.9,29.77,ENE,77,4.0,10.0,46,0.00,,---,0.00,VWS V14.01,2013-09-13 20:34:00,
2013-09-13 16:39:00,75.6,54.5,29.77,West,271,0.0,10.0,48,0.00,,---,0.00,VWS V14.01,2013-09-13 20:39:00,
2013-09-13 16:40:00,75.6,54.5,29.77,West,267,0.0,10.0,48,0.00,,---,0.00,VWS V14.01,2013-09-13 20:40:00,
2013-09-13 16:44:00,75.9,54.8,29.77,West,271,3.0,6.0,48,0.00,,---,0.00,VWS V14.01,2013-09-13 20:44:00,
2013-09-13 16:49:00,76.1,53.8,29.77,NNW,334,2.0,6.0,46,0.00,,---,0.00,VWS V14.01,2013-09-13 20:49:00,
2013-09-13 16:50:00,76.1,53.8,29.77,NNW,334,2.0,6.0,46,0.00,,---,0.00,VWS V14.01,2013-09-13 20:50:00,
2013-09-13 16:54:00,76.2,54.5,29.77,WNW,295,12.0,12.0,47,0.00,,---,0.00,VWS V14.01,2013-09-13 20:54:00,
2013-09-13 16:59:00,75.9,52.5,29.77,North,9,1.0,12.0,44,0.00,,---,0.00,VWS V14.01,2013-09-13 20:59:00,
2013-09-13 17:00:00,75.9,52.5,29.77,North,9,1.0,12.0,44,0.00,,---,0.00,VWS V14.01,2013-09-13 21:00:00,
2013-09-13 17:04:00,76.1,54.4,29.77,WNW,291,4.0,7.0,47,0.00,,---,0.00,VWS V14.01,2013-09-13 21:04:00,
2013-09-13 17:09:00,75.7,53.5,29.77,WNW,301,2.0,2.0,46,0.00,,---,0.00,VWS V14.01,2013-09-13 21:09:00,
2013-09-13 17:10:00,75.7,53.5,29.77,NNW,345,1.0,11.0,46,0.00,,---,0.00,VWS V14.01,2013-09-13 21:10:00,
2013-09-13 17:14:00,75.7,52.9,29.77,NW,309,3.0,10.0,45,0.00,,---,0.00,VWS V14.01,2013-09-13 21:14:00,
2013-09-13 17:19:00,75.6,53.4,29.78,WNW,283,2.0,2.0,46,0.00,,---,0.00,VWS V14.01,2013-09-13 21:19:00,
2013-09-13 17:20:00,75.6,54.0,29.78,West,281,1.0,10.0,47,0.00,,---,0.00,VWS V14.01,2013-09-13 21:20:00,
2013-09-13 17:24:00,75.8,53.6,29.78,NNE,15,3.0,4.0,46,0.00,,---,0.00,VWS V14.01,2013-09-13 21:24:00,
2013-09-13 17:29:00,75.4,52.0,29.78,NNW,348,6.0,6.0,44,0.00,,---,0.00,VWS V14.01,2013-09-13 21:29:00,
2013-09-13 17:30:00,75.4,52.0,29.78,NW,318,3.0,11.0,44,0.00,,---,0.00,VWS V14.01,2013-09-13 21:30:00,
2013-09-13 17:34:00,75.3,54.3,29.78,NW,325,3.0,9.0,48,0.00,,---,0.00,VWS V14.01,2013-09-13 21:34:00,
2013-09-13 17:39:00,75.1,53.5,29.78,WNW,295,4.0,4.0,47,0.00,,---,0.00,VWS V14.01,2013-09-13 21:39:00,
2013-09-13 17:40:00,75.1,53.5,29.78,WSW,251,2.0,9.0,47,0.00,,---,0.00,VWS V14.01,2013-09-13 21:40:00,
2013-09-13 17:44:00,74.9,54.5,29.78,WNW,302,3.0,10.0,49,0.00,,---,0.00,VWS V14.01,2013-09-13 21:44:00,
2013-09-13 17:49:00,74.8,54.4,29.79,NW,321,1.0,3.0,49,0.00,,---,0.00,VWS V14.01,2013-09-13 21:49:00,
2013-09-13 17:50:00,74.8,54.4,29.79,WNW,302,3.0,10.0,49,0.00,,---,0.00,VWS V14.01,2013-09-13 21:50:00,
2013-09-13 17:54:00,74.9,55.6,29.79,WNW,294,2.0,5.0,51,0.00,,---,0.00,VWS V14.01,2013-09-13 21:54:00,
2013-09-13 17:59:00,74.9,55.6,29.79,WNW,294,2.0,2.0,51,0.00,,---,0.00,VWS V14.01,2013-09-13 21:59:00,
2013-09-13 18:00:00,74.9,55.6,29.79,WNW,290,2.0,5.0,51,0.00,,---,0.00,VWS V14.01,2013-09-13 22:00:00,
2013-09-13 18:04:00,74.8,53.8,29.79,NW,318,4.0,8.0,48,0.00,,---,0.00,VWS V14.01,2013-09-13 22:04:00,
2013-09-13 18:09:00,74.4,54.0,29.79,NNW,327,3.0,3.0,49,0.00,,---,0.00,VWS V14.01,2013-09-13 22:09:00,
2013-09-13 18:10:00,74.4,54.0,29.79,NW,314,1.0,8.0,49,0.00,,---,0.00,VWS V14.01,2013-09-13 22:10:00,
2013-09-13 18:14:00,74.2,54.4,29.80,NNW,341,3.0,4.0,50,0.00,,---,0.00,VWS V14.01,2013-09-13 22:14:00,
2013-09-13 18:19:00,74.0,54.2,29.80,NW,315,1.0,3.0,50,0.00,,---,0.00,VWS V14.01,2013-09-13 22:19:00,
2013-09-13 18:20:00,74.0,54.7,29.80,West,281,2.0,5.0,51,0.00,,---,0.00,VWS V14.01,2013-09-13 22:20:00,
2013-09-13 18:24:00,73.8,54.0,29.80,WNW,292,5.0,6.0,50,0.00,,---,0.00,VWS V14.01,2013-09-13 22:24:00,
2013-09-13 18:29:00,73.3,53.6,29.80,WNW,295,3.0,3.0,50,0.00,,---,0.00,VWS V14.01,2013-09-13 22:29:00,
2013-09-13 18:30:00,73.3,53.6,29.80,WNW,293,2.0,11.0,50,0.00,,---,0.00,VWS V14.01,2013-09-13 22:30:00,
2013-09-13 18:34:00,73.0,54.9,29.80,WNW,293,3.0,4.0,53,0.00,,---,0.00,VWS V14.01,2013-09-13 22:34:00,
2013-09-13 18:39:00,72.7,54.6,29.81,WNW,296,0.0,1.0,53,0.00,,---,0.00,VWS V14.01,2013-09-13 22:39:00,
2013-09-13 18:40:00,72.7,54.6,29.81,WNW,298,0.0,4.0,53,0.00,,---,0.00,VWS V14.01,2013-09-13 22:40:00,
2013-09-13 18:44:00,72.7,55.6,29.81,WNW,285,0.0,2.0,55,0.00,,---,0.00,VWS V14.01,2013-09-13 22:44:00,
2013-09-13 18:49:00,72.8,55.2,29.81,NNW,338,0.0,0.0,54,0.00,,---,0.00,VWS V14.01,2013-09-13 22:49:00,
2013-09-13 18:50:00,72.8,55.2,29.81,NNW,338,0.0,2.0,54,0.00,,---,0.00,VWS V14.01,2013-09-13 22:50:00,
2013-09-13 18:54:00,72.4,57.8,29.81,NW,323,0.0,1.0,60,0.00,,---,0.00,VWS V14.01,2013-09-13 22:54:00,
2013-09-13 18:59:00,71.7,57.5,29.81,WNW,300,0.0,0.0,61,0.00,,---,0.00,VWS V14.01,2013-09-13 22:59:00,
2013-09-13 19:00:00,71.8,57.6,29.81,WNW,300,0.0,1.0,61,0.00,,---,0.00,VWS V14.01,2013-09-13 23:00:00,
2013-09-13 19:04:00,70.6,57.8,29.82,WNW,285,0.0,1.0,64,0.00,,---,0.00,VWS V14.01,2013-09-13 23:04:00,
2013-09-13 19:09:00,69.5,58.1,29.82,WNW,285,0.0,0.0,67,0.00,,---,0.00,VWS V14.01,2013-09-13 23:09:00,
2013-09-13 19:10:00,69.6,57.8,29.82,WNW,285,0.0,1.0,66,0.00,,---,0.00,VWS V14.01,2013-09-13 23:10:00,
2013-09-13 19:14:00,68.4,56.2,29.82,WNW,288,0.0,1.0,65,0.00,,---,0.00,VWS V14.01,2013-09-13 23:14:00,
2013-09-13 19:19:00,67.4,57.7,29.82,WNW,286,0.0,0.0,71,0.00,,---,0.00,VWS V14.01,2013-09-13 23:19:00,
2013-09-13 19:20:00,67.5,57.4,29.82,WNW,287,0.0,1.0,70,0.00,,---,0.00,VWS V14.01,2013-09-13 23:20:00,
2013-09-13 19:24:00,66.3,57.4,29.82,WNW,286,0.0,0.0,73,0.00,,---,0.00,VWS V14.01,2013-09-13 23:24:00,
2013-09-13 19:29:00,65.3,57.5,29.83,WNW,288,0.0,0.0,76,0.00,,---,0.00,VWS V14.01,2013-09-13 23:29:00,
2013-09-13 19:30:00,65.4,57.7,29.83,WNW,288,0.0,0.0,76,0.00,,---,0.00,VWS V14.01,2013-09-13 23:30:00,
2013-09-13 19:34:00,64.6,57.6,29.83,WNW,288,0.0,0.0,78,0.00,,---,0.00,VWS V14.01,2013-09-13 23:34:00,
2013-09-13 19:39:00,63.9,56.2,29.83,WNW,288,0.0,0.0,76,0.00,,---,0.00,VWS V14.01,2013-09-13 23:39:00,
2013-09-13 19:40:00,63.9,56.2,29.83,WNW,288,0.0,0.0,76,0.00,,---,0.00,VWS V14.01,2013-09-13 23:40:00,
2013-09-13 19:44:00,63.5,55.8,29.84,West,267,1.0,1.0,76,0.00,,---,0.00,VWS V14.01,2013-09-13 23:44:00,
2013-09-13 19:49:00,63.2,55.2,29.84,West,267,0.0,0.0,75,0.00,,---,0.00,VWS V14.01,2013-09-13 23:49:00,
2013-09-13 19:50:00,63.2,55.2,29.84,West,266,0.0,1.0,75,0.00,,---,0.00,VWS V14.01,2013-09-13 23:50:00,
2013-09-13 19:54:00,63.0,56.7,29.84,West,267,0.0,0.0,80,0.00,,---,0.00,VWS V14.01,2013-09-13 23:54:00,
2013-09-13 19:59:00,62.6,57.0,29.84,West,267,0.0,0.0,82,0.00,,---,0.00,VWS V14.01,2013-09-13 23:59:00,
2013-09-13 20:00:00,62.6,57.0,29.84,West,266,0.0,0.0,82,0.00,,---,0.00,VWS V14.01,2013-09-14 00:00:00,
2013-09-13 20:04:00,62.2,56.6,29.85,North,358,0.0,1.0,82,0.00,,---,0.00,VWS V14.01,2013-09-14 00:04:00,
2013-09-13 20:09:00,61.8,56.6,29.85,North,11,0.0,0.0,83,0.00,,---,0.00,VWS V14.01,2013-09-14 00:09:00,
2013-09-13 20:10:00,61.9,56.7,29.85,North,11,0.0,1.0,83,0.00,,---,0.00,VWS V14.01,2013-09-14 00:10:00,
2013-09-13 20:14:00,61.6,56.4,29.85,NNW,346,0.0,1.0,83,0.00,,---,0.00,VWS V14.01,2013-09-14 00:14:00,
2013-09-13 20:19:00,61.4,55.2,29.86,NE,52,0.0,0.0,80,0.00,,---,0.00,VWS V14.01,2013-09-14 00:19:00,
2013-09-13 20:20:00,61.4,55.5,29.86,NE,52,0.0,2.0,81,0.00,,---,0.00,VWS V14.01,2013-09-14 00:20:00,
2013-09-13 20:24:00,61.5,55.3,29.86,WNW,288,0.0,2.0,80,0.00,,---,0.00,VWS V14.01,2013-09-14 00:24:00,
2013-09-13 20:29:00,61.8,54.2,29.86,NW,326,0.0,1.0,76,0.00,,---,0.00,VWS V14.01,2013-09-14 00:29:00,
2013-09-13 20:30:00,61.7,54.1,29.86,NW,326,1.0,4.0,76,0.00,,---,0.00,VWS V14.01,2013-09-14 00:30:00,
2013-09-13 20:34:00,62.3,53.5,29.87,NNE,29,4.0,4.0,73,0.00,,---,0.00,VWS V14.01,2013-09-14 00:34:00,
2013-09-13 20:39:00,63.0,53.8,29.87,NE,46,0.0,3.0,72,0.00,,---,0.00,VWS V14.01,2013-09-14 00:39:00,
2013-09-13 20:40:00,62.9,53.8,29.87,NE,44,2.0,4.0,72,0.00,,---,0.00,VWS V14.01,2013-09-14 00:40:00,
2013-09-13 20:44:00,63.1,53.2,29.87,ENE,77,4.0,4.0,70,0.00,,---,0.00,VWS V14.01,2013-09-14 00:44:00,
2013-09-13 20:49:00,63.2,53.7,29.88,East,80,2.0,2.0,71,0.00,,---,0.00,VWS V14.01,2013-09-14 00:49:00,
2013-09-13 20:50:00,63.2,53.7,29.88,ENE,78,2.0,5.0,71,0.00,,---,0.00,VWS V14.01,2013-09-14 00:50:00,
2013-09-13 20:54:00,62.9,53.8,29.88,NW,305,1.0,2.0,72,0.00,,---,0.00,VWS V14.01,2013-09-14 00:54:00,
2013-09-13 20:59:00,62.6,53.8,29.88,North,351,0.0,0.0,73,0.00,,---,0.00,VWS V14.01,2013-09-14 00:59:00,
2013-09-13 21:00:00,62.6,53.8,29.88,North,351,0.0,2.0,73,0.00,,---,0.00,VWS V14.01,2013-09-14 01:00:00,
2013-09-13 21:04:00,62.2,54.5,29.88,North,351,0.0,0.0,76,0.00,,---,0.00,VWS V14.01,2013-09-14 01:04:00,
2013-09-13 21:09:00,61.7,54.4,29.88,North,351,0.0,0.0,77,0.00,,---,0.00,VWS V14.01,2013-09-14 01:09:00,
2013-09-13 21:10:00,61.7,54.4,29.88,North,351,0.0,0.0,77,0.00,,---,0.00,VWS V14.01,2013-09-14 01:10:00,
2013-09-13 21:14:00,61.1,54.5,29.89,North,351,0.0,1.0,79,0.00,,---,0.00,VWS V14.01,2013-09-14 01:14:00,
2013-09-13 21:19:00,60.7,54.2,29.89,ENE,63,1.0,1.0,79,0.00,,---,0.00,VWS V14.01,2013-09-14 01:19:00,
2013-09-13 21:20:00,60.7,54.2,29.89,ENE,65,0.0,2.0,79,0.00,,---,0.00,VWS V14.01,2013-09-14 01:20:00,
2013-09-13 21:24:00,60.4,54.2,29.89,NW,315,1.0,1.0,80,0.00,,---,0.00,VWS V14.01,2013-09-14 01:24:00,
2013-09-13 21:29:00,60.4,54.5,29.90,NW,315,0.0,0.0,81,0.00,,---,0.00,VWS V14.01,2013-09-14 01:29:00,
2013-09-13 21:30:00,60.4,54.5,29.90,NW,315,0.0,1.0,81,0.00,,---,0.00,VWS V14.01,2013-09-14 01:30:00,
2013-09-13 21:34:00,60.1,54.3,29.90,ENE,77,0.0,0.0,81,0.00,,---,0.00,VWS V14.01,2013-09-14 01:34:00,
2013-09-13 21:39:00,59.7,54.2,29.90,ENE,77,0.0,0.0,82,0.00,,---,0.00,VWS V14.01,2013-09-14 01:39:00,
2013-09-13 21:40:00,59.7,54.2,29.90,ENE,78,0.0,0.0,82,0.00,,---,0.00,VWS V14.01,2013-09-14 01:40:00,
2013-09-13 21:44:00,59.3,53.8,29.90,ENE,73,0.0,2.0,82,0.00,,---,0.00,VWS V14.01,2013-09-14 01:44:00,
2013-09-13 21:49:00,59.2,54.0,29.90,NNW,337,1.0,1.0,83,0.00,,---,0.00,VWS V14.01,2013-09-14 01:49:00,
2013-09-13 21:50:00,59.3,54.2,29.90,NNE,31,0.0,2.0,83,0.00,,---,0.00,VWS V14.01,2013-09-14 01:50:00,
2013-09-13 21:54:00,59.1,54.3,29.90,NW,304,0.0,1.0,84,0.00,,---,0.00,VWS V14.01,2013-09-14 01:54:00,
2013-09-13 21:59:00,59.0,54.5,29.91,NW,315,0.0,0.0,85,0.00,,---,0.00,VWS V14.01,2013-09-14 01:59:00,
2013-09-13 22:00:00,59.0,54.5,29.91,NW,315,0.0,2.0,85,0.00,,---,0.00,VWS V14.01,2013-09-14 02:00:00,
2013-09-13 22:04:00,58.7,54.2,29.91,North,3,0.0,1.0,85,0.00,,---,0.00,VWS V14.01,2013-09-14 02:04:00,
2013-09-13 22:09:00,58.7,54.2,29.91,NNE,19,0.0,0.0,85,0.00,,---,0.00,VWS V14.01,2013-09-14 02:09:00,
2013-09-13 22:10:00,58.7,53.9,29.91,NNW,338,0.0,2.0,84,0.00,,---,0.00,VWS V14.01,2013-09-14 02:10:00,
2013-09-13 22:14:00,58.9,53.8,29.91,ENE,74,2.0,3.0,83,0.00,,---,0.00,VWS V14.01,2013-09-14 02:14:00,
2013-09-13 22:19:00,59.4,53.9,29.91,East,80,4.0,4.0,82,0.00,,---,0.00,VWS V14.01,2013-09-14 02:19:00,
2013-09-13 22:20:00,59.4,53.9,29.91,North,6,3.0,6.0,82,0.00,,---,0.00,VWS V14.01,2013-09-14 02:20:00,
2013-09-13 22:24:00,59.6,54.1,29.92,NW,307,0.0,5.0,82,0.00,,---,0.00,VWS V14.01,2013-09-14 02:24:00,
2013-09-13 22:29:00,59.3,53.5,29.92,NW,307,0.0,0.0,81,0.00,,---,0.00,VWS V14.01,2013-09-14 02:29:00,
2013-09-13 22:30:00,59.3,53.5,29.92,NW,308,0.0,5.0,81,0.00,,---,0.00,VWS V14.01,2013-09-14 02:30:00,
2013-09-13 22:34:00,59.2,53.4,29.92,NNW,329,2.0,4.0,81,0.00,,---,0.00,VWS V14.01,2013-09-14 02:34:00,
2013-09-13 22:39:00,59.3,53.5,29.92,NW,315,0.0,0.0,81,0.00,,---,0.00,VWS V14.01,2013-09-14 02:39:00,
2013-09-13 22:40:00,59.3,53.5,29.92,NW,315,0.0,4.0,81,0.00,,---,0.00,VWS V14.01,2013-09-14 02:40:00,
2013-09-13 22:44:00,59.1,53.3,29.92,North,352,0.0,1.0,81,0.00,,---,0.00,VWS V14.01,2013-09-14 02:44:00,
2013-09-13 22:49:00,59.0,53.2,29.93,WNW,295,0.0,0.0,81,0.00,,---,0.00,VWS V14.01,2013-09-14 02:49:00,
2013-09-13 22:50:00,59.0,53.2,29.93,ENE,60,0.0,2.0,81,0.00,,---,0.00,VWS V14.01,2013-09-14 02:50:00,
2013-09-13 22:54:00,58.9,53.1,29.93,WNW,300,0.0,1.0,81,0.00,,---,0.00,VWS V14.01,2013-09-14 02:54:00,
2013-09-13 22:59:00,58.6,52.8,29.93,ENE,67,1.0,2.0,81,0.00,,---,0.00,VWS V14.01,2013-09-14 02:59:00,
2013-09-13 23:00:00,58.7,52.9,29.93,NE,39,0.0,1.0,81,0.00,,---,0.00,VWS V14.01,2013-09-14 03:00:00,
2013-09-13 23:04:00,58.6,52.8,29.93,ENE,75,1.0,2.0,81,0.00,,---,0.00,VWS V14.01,2013-09-14 03:04:00,
2013-09-13 23:09:00,58.6,52.8,29.93,East,90,0.0,0.0,81,0.00,,---,0.00,VWS V14.01,2013-09-14 03:09:00,
2013-09-13 23:10:00,58.6,52.8,29.94,East,91,0.0,2.0,81,0.00,,---,0.00,VWS V14.01,2013-09-14 03:10:00,
2013-09-13 23:14:00,58.6,52.8,29.93,East,90,0.0,1.0,81,0.00,,---,0.00,VWS V14.01,2013-09-14 03:14:00,
2013-09-13 23:19:00,58.3,52.8,29.93,East,80,0.0,0.0,82,0.00,,---,0.00,VWS V14.01,2013-09-14 03:19:00,
2013-09-13 23:20:00,58.3,52.8,29.93,East,80,0.0,1.0,82,0.00,,---,0.00,VWS V14.01,2013-09-14 03:20:00,
2013-09-13 23:24:00,57.9,52.8,29.93,East,80,0.0,0.0,83,0.00,,---,0.00,VWS V14.01,2013-09-14 03:24:00,
2013-09-13 23:29:00,57.3,52.5,29.93,NNE,15,0.0,0.0,84,0.00,,---,0.00,VWS V14.01,2013-09-14 03:29:00,
2013-09-13 23:30:00,57.4,52.6,29.93,NNE,15,0.0,0.0,84,0.00,,---,0.00,VWS V14.01,2013-09-14 03:30:00,
2013-09-13 23:34:00,57.0,52.5,29.93,North,356,0.0,2.0,85,0.00,,---,0.00,VWS V14.01,2013-09-14 03:34:00,
2013-09-13 23:39:00,56.7,52.2,29.93,ENE,65,0.0,0.0,85,0.00,,---,0.00,VWS V14.01,2013-09-14 03:39:00,
2013-09-13 23:40:00,56.8,52.3,29.93,ENE,65,0.0,2.0,85,0.00,,---,0.00,VWS V14.01,2013-09-14 03:40:00,
2013-09-13 23:44:00,56.6,52.2,29.93,SE,136,0.0,1.0,85,0.00,,---,0.00,VWS V14.01,2013-09-14 03:44:00,
2013-09-13 23:49:00,56.6,51.8,29.93,East,84,0.0,1.0,84,0.00,,---,0.00,VWS V14.01,2013-09-14 03:49:00,
2013-09-13 23:50:00,56.6,51.8,29.93,East,84,1.0,1.0,84,0.00,,---,0.00,VWS V14.01,2013-09-14 03:50:00,
2013-09-13 23:54:00,57.0,51.6,29.93,ENE,74,1.0,2.0,82,0.00,,---,0.00,VWS V14.01,2013-09-14 03:54:00,
2013-09-13 23:59:00,57.2,51.8,29.94,ENE,76,0.0,0.0,82,0.00,,---,0.00,VWS V14.01,2013-09-14 03:59:00,